www.pogodaiklimat.ru

Погода и климат >> Архив погоды >> Мексика >> Sombrerete


ПОГОДА в Sombrerete

  • Прогноз погоды в Sombrerete
  • Монитор погоды в Sombrerete
  • Климат города

АРХИВ ПОГОДЫ в Sombrerete

Время (UTC), дата Ветер
(напр.,м/с)
 
Видим.   Явления Облачность Т
(С)
Тd
(С)
f
(%)
Тe
(С)
Тes
(С)
Комфортность P
(гПа)
Po
(гПа)
Тmin
(С)
Tmax
(С)
R
(мм)
R24
(мм)
S
(см)
15 11.08 штиль 0 16 км 4/3 700 м
[Cu hum Ac lent]
+17.8 +12.0 69 +18 +24 1011.9 772.6
18 11.08 штиль 0 16 км 8/8 700 м
[Cu med, cong]
+24.2 +11.9 46 +26 +31 жарко 1009.8 771.9 +13.8 +26.2
12 12.08 штиль 0 24 км 9/9 300 м
[Frnb]
+13.8 +12.7 93 +13 +13 1011.9 772.1 +13.2 +26.2
15 12.08 штиль 0 16 км 8/4 500 м
[Sc diur, vesp Ci fib]
+17.8 +13.0 73 +18 +23 1012.9 772.6
18 12.08 штиль 0 16 км 8/6 500 м
[Cu med, cong Ci fib]
+21.6 +13.8 61 +24 +34 комфорт 1011.4 772.3 +12.8 +22.6
12 13.08 штиль 0 16 км 8/8 630 м
[Sc diur, vesp]
+12.8 +11.7 93 +12 +12 1011.7 770.9 +12.4 +25.2 5
15 13.08 штиль 0 16 км 6/3 630 м
[Sc diur, vesp Ac und]
+15.4 +12.7 84 +15 +20 1013.6 772.1
21 13.08 В 1 16 км зарница 8/8 1200 м
[Cu med, cong]
+24.2 +12.0 46 +26 +30 жарко 1007.9 769.7
00 14.08 штиль 0 16 км в посл. час дождь 8/8 1000 м
[Sc diur, vesp]
+16.8 +12.0 73 +17 +17 1004.9 769.1 0.7
12 14.08 штиль 0 16 км 8/8 600 м
[Sc diur, vesp]
+13.0 +12.4 96 +12 +12 1009.7 770.0 +12.8 +26.4
15 14.08 штиль 0 16 км 8/3 750 м
[Cu hum Ci fib]
+17.4 +14.0 80 +17 +23 1011.0 770.6
00 15.08 В 2 16 км 3/3 1000 м
[Cu hum]
+24.8 +8.1 34 +25 +26 комфорт 1001.5 768.1 +12.8 +26.8
12 15.08 штиль 0 16 км 5/0 1500 м
[As trans]
+14.9 +12.9 88 +15 +15 1009.4 771.0 +13.9 +26.8
15 15.08 штиль 0 16 км 3/0 1500 м
[Ac trans]
+19.4 +12.8 66 +21 +28 комфорт 1011.5 772.1
18 15.08 штиль 0 16 км 8/8 1200 м
[Cu med, cong]
+22.8 +9.4 42 +24 +30 комфорт 1010.4 772.2 +13.9 +24.6
21 15.08 ЮВ 2 16 км 8/8 1500 м
[Sc diur, vesp]
+25.5 +10.3 38 +26 +30 жарко 1006.2 770.6
00 16.08 штиль 0 16 км {морось} 8/8 1000 м
[Sc diur, vesp]
+21.0 +12.6 59 +23 +24 комфорт 1003.4 769.8 0.0
03 16.08 штиль 0 16 км {морось} 5/5 630 м
[Cu hum]
+17.2 +12.0 71 +17 +17 1004.8 771.1 0.1
06 16.08 штиль 0 16 км ясно +14.6 +12.5 87 +14 +14 1007.7 772.0 +13.6 +27.2 0.1
12 16.08 штиль 0 16 км мгла туман ясно +13.0 +12.2 95 +12 +12 1012.9 772.5 +12.3 +27.2
15 16.08 штиль 0 16 км ясно +20.0 +12.7 63 +22 +31 комфорт 1015.0 773.8
18 16.08 ЮВ 1 16 км 8/3 1410 м
[Cu med, cong Cs]
+25.0 +9.6 38 +26 +40 жарко 1012.8 773.7 +12.2 +25.0
21 16.08 В 2 16 км 6/5 1410 м
[Cu med, cong Ci fib]
+28.2 +8.3 29 +28 +36 жарко 1008.1 772.4
00 17.08 штиль 0 16 км {ливн. осадки} 8/3 1000 м
[Cu med, cong As op]
+22.8 +11.3 48 +25 +26 комфорт 1004.2 771.0 5
06 17.08 штиль 0 16 км 8/8 570 м
[Cu hum]
+16.0 +12.3 79 +16 +16 1009.1 774.1 +29.1 1
12 17.08 штиль 0 16 км 4/0 1500 м
[Ac lent Ci fib]
+13.5 +12.9 96 +13 +13 1013.5 773.9 +13.0 +29.1 0.3
15 17.08 штиль 0 16 км ясно +19.0 +11.3 61 +20 +29 1015.0 774.4
18 17.08 С 1 16 км слабая морось 6/6 1000 м
[Cu med, cong]
+22.8 +8.6 40 +24 +34 комфорт 1013.6 774.3 0.0
21 17.08 СВ 3 16 км 6/6 1350 м
[Cu med, cong]
+24.6 +10.2 40 +26 +31 жарко 1009.6 772.6 0.0
00 18.08 СЗ 2 16 км гроза без осадков {дождь} 8/3 1000 м
[Sc diur, vesp As op]
+20.4 +11.9 58 +23 +24 комфорт 1007.0 771.8 1
12 18.08 штиль 0 16 км ясно +12.5 +11.1 91 +12 +12 1015.5 773.9 +12.0 +25.7

 

Местоположение метеостанции Sombrerete (Мексика): широта 23.63 долгота -103.60 высота над уровнем моря 2351 м.

В архиве по умолчанию представлена погода в Sombrerete за последнюю неделю. Архивные данные за месяц целиком и за предыдущие месяцы, начиная с января 2011 года, Вы можете получить, выбрав интересующий диапазон дат из раскрывающегося списка и нажав кнопку "Ввод!".


*Определитесь, кто Вы:
робот инопланетянин человек

Внимание! Время в таблицах - всемирное. Для получения местного времени необходимо прибавить поправку, которая в Sombrerete равна -6 ч.

Смотрите также архив погоды в соседних городах и на ближайших метеорологических станциях:

Погода в Durango (Мексика) (112 км)
Погода в Huejucar (Мексика) (141 км)
Погода в Zacatecas (Мексика) (147 км)
Погода в Colotlan (Мексика) (174 км)
Погода в Torreon (Мексика) (212 км)
Погода в Aguascalientes (Мексика) (237 км)
Погода в Tepic (Мексика) (265 км)
Погода в Tepehuanes (Мексика) (287 км)
Погода в Mazatlan (Мексика) (290 км)
Погода в Lagos De Moreno (Мексика) (307 км)

Пояснения к столбцам:

Ветер - указаны скорость ветра в м/с - средняя за 10 мин, порывы в срок и между сроками (в фигурных скобках) и направление, откуда дует ветер: С - северный, СВ - северо-восточный, В - восточный, ЮВ - юго-восточный, Ю - южный, ЮЗ - юго-западный, З - западный, СЗ - северо-западный.
Видимость - горизонтальная дальность видимости в метрах или километрах. При видимости от 1 до 10 км при отсутствии осадков обычно наблюдается дымка, при ухудшении видимости до 1 км и менее - туман. В сухую погоду видимость может ухудшаться дымом, пылью или мглою.
Явления - указаны атмосферные явления, наблюдавшиеся в срок или в последний час перед сроком; фигурными скобками обозначены явления, наблюдавшиеся между сроками (за 1-3 часа до срока); квадратными скобками обозначены град или гололедные отложения с указанием их диаметра в мм.
Облачность - указаны через наклонную черту общая и нижняя облачность в баллах и высота нижней границы облаков в метрах; квадратными скобками обозначены формы облаков: Ci - перистые, Cs - перисто-слоистые, Cc - перисто-кучевые, Ac - высококучевые, As - высокослоистые, Sc - слоисто-кучевые, Ns - слоисто-дождевые, Cu - кучевые, Cb - кучево-дождевые. Подробнее классификацию облаков см. в Атласе облаков (PDF).
T - Температура воздуха - температура, измеренная на высоте 2 м над землей.
Td - Температура точки росы - температура, при понижении до которой содержащийся в воздухе водяной пар достигнет насыщения.
f - Относительная влажность воздуха - влажноcть воздуха, измеренная на высоте 2 м над землей.
Te - Эффективная температура - температура, которую ощущает одетый по сезону человек в тени. Характеристика душности погоды. При расчете учитывается влияние влажности воздуха и скорости ветра на теплоощущения человека.
Tes - Эффективная температура на солнце - температура, которую ощущает человек, с поправкой на солнечный нагрев. Характеристика знойности погоды. Зависит от высоты солнца над горизонтом, облачности и скорости ветра. Ночью, в пасмурную погоду, а также при ветре 12 м/с и более поправка равна нулю.
P - Атмосферное давление - приведенное к уровню моря атмосферное давление.
Po - Атмосферное давление - измеренное на уровне метеостанции атмосферное давление.
Tmin - Минимальная температура - минимум температуры воздуха на высоте 2 м над землей.
Tmax - Максимальная температура - максимум температуры воздуха на высоте 2 м над землей.
R - Количество осадков - Количество выпавших осадков за период времени, мм. При наведении курсора мыши на число - период времени, за который выпало указанное количество осадков.
R24 - Количество осадков - Количество выпавших осадков за 24 часа, мм.
S - Снежный покров - Высота снежного покрова, см. При наведении курсора мыши на число - состояние снежного покрова и степень покрытия местности в баллах.